nws-alerts: Checking more than four warning/county codes can delay the loading of your pages. You should use a cron job to get the data.
EllijayWeather Station Historical Data
Daily Summary for March 10, 2019 Units:  English    Metric   Both
Daily Weekly Monthly Yearly Custom
  High: Low: Average:
Temperature: 66.0 °F 48.9 °F 56.9 °F
Dew Point: 55.6 °F 47.1 °F 52.6 °F
Humidity: 99% 52% 87%
Wind Speed: 6.0mph 0.0mph 0.1mph
Wind Gust: 11.0mph - -
Wind- - SSW
Pressure: 30.23 in 30.01 in -
Precipitation: 0.32 in    
Historical Graphs
 
 
Tabular Data for March 10, 2019
Time Temperature Dew Point Pressure Wind Wind Speed Wind Gust Humidity Rainfall Rate (Hourly) solar
00:04 60.4 °F 55.2 °F 30.02 in Calm   1.0 mph 83% 0.01 in meteobridge W/m2
00:09 59.5 °F 54.7 °F 30.02 in ESE 2.0 mph 11.0 mph 84% 0.01 in meteobridge W/m2
00:14 59.4 °F 54.1 °F 30.02 in Calm   2.0 mph 83% 0.01 in meteobridge W/m2
00:19 59.2 °F 53.6 °F 30.02 in Calm   5.0 mph 82% 0.01 in meteobridge W/m2
00:24 59.7 °F 53.6 °F 30.01 in South 2.0 mph 3.0 mph 80% 0.01 in meteobridge W/m2
00:29 60.1 °F 54.0 °F 30.02 in Calm     80% 0.01 in meteobridge W/m2
00:34 60.4 °F 53.6 °F 30.02 in SE 6.0 mph 6.0 mph 78% 0.01 in meteobridge W/m2
00:39 60.4 °F 53.6 °F 30.02 in ESE 2.0 mph 2.0 mph 78% 0.01 in meteobridge W/m2
00:44 60.6 °F 53.4 °F 30.02 in Calm   7.0 mph 77% 0.01 in meteobridge W/m2
00:49 60.6 °F 53.8 °F 30.02 in Calm   2.0 mph 78% 0.01 in meteobridge W/m2
00:54 60.1 °F 54.0 °F 30.02 in ESE 0.9 mph 2.0 mph 80% 0.01 in meteobridge W/m2
00:59 59.9 °F 53.4 °F 30.02 in Calm   6.0 mph 79% 0.01 in meteobridge W/m2
01:04 59.7 °F 53.6 °F 30.03 in Calm     80% 0.00 in meteobridge W/m2
01:09 59.5 °F 54.0 °F 30.03 in Calm     82% 0.00 in meteobridge W/m2
01:14 59.4 °F 54.1 °F 30.03 in Calm     83% 0.01 in meteobridge W/m2
01:19 58.6 °F 54.5 °F 30.04 in Calm     86% 0.01 in meteobridge W/m2
01:24 58.3 °F 53.8 °F 30.04 in Calm     85% 0.01 in meteobridge W/m2
01:29 57.9 °F 53.4 °F 30.04 in Calm   1.0 mph 85% 0.01 in meteobridge W/m2
01:34 57.9 °F 53.4 °F 30.03 in Calm   2.0 mph 85% 0.01 in meteobridge W/m2
01:39 57.9 °F 53.1 °F 30.03 in Calm   2.0 mph 84% 0.01 in meteobridge W/m2
01:44 57.9 °F 53.1 °F 30.03 in Calm     84% 0.01 in meteobridge W/m2
01:49 57.9 °F 53.8 °F 30.04 in Calm     86% 0.02 in meteobridge W/m2
01:54 57.4 °F 53.8 °F 30.04 in Calm     88% 0.04 in meteobridge W/m2
01:59 56.8 °F 54.0 °F 30.04 in Calm     90% 0.04 in meteobridge W/m2
03:04 56.5 °F 54.1 °F 30.06 in Calm     92% 0.05 in meteobridge W/m2
03:09 55.9 °F 54.0 °F 30.05 in Calm     93% 0.15 in meteobridge W/m2
03:14 55.8 °F 54.1 °F 30.05 in Calm     94% 0.18 in meteobridge W/m2
03:19 55.4 °F 54.0 °F 30.05 in Calm     95% 0.18 in meteobridge W/m2
03:24 55.2 °F 53.8 °F 30.04 in Calm     95% 0.18 in meteobridge W/m2
03:29 55.0 °F 54.0 °F 30.04 in Calm     96% 0.18 in meteobridge W/m2
03:34 55.0 °F 54.0 °F 30.04 in Calm     96% 0.19 in meteobridge W/m2
03:39 55.0 °F 54.0 °F 30.04 in Calm     96% 0.19 in meteobridge W/m2
03:44 55.0 °F 54.0 °F 30.04 in Calm     96% 0.19 in meteobridge W/m2
03:49 55.0 °F 54.0 °F 30.06 in Calm   3.0 mph 96% 0.18 in meteobridge W/m2
03:54 54.9 °F 53.8 °F 30.06 in NW 0.9 mph 4.0 mph 96% 0.16 in meteobridge W/m2
03:59 54.7 °F 53.6 °F 30.06 in Calm     96% 0.16 in meteobridge W/m2
04:04 54.3 °F 53.2 °F 30.06 in Calm     96% 0.17 in meteobridge W/m2
04:09 54.3 °F 53.2 °F 30.06 in Calm     96% 0.06 in meteobridge W/m2
04:14 54.1 °F 53.1 °F 30.06 in Calm     96% 0.02 in meteobridge W/m2
04:19 54.0 °F 52.9 °F 30.07 in Calm   2.0 mph 96% 0.02 in meteobridge W/m2
04:24 53.8 °F 52.7 °F 30.07 in Calm     96% 0.02 in meteobridge W/m2
04:29 53.8 °F 52.9 °F 30.07 in Calm     97% 0.02 in meteobridge W/m2
04:34 53.8 °F 52.9 °F 30.07 in Calm     97% 0.02 in meteobridge W/m2
04:39 53.6 °F 52.7 °F 30.07 in Calm     97% 0.02 in meteobridge W/m2
04:44 53.6 °F 52.7 °F 30.08 in Calm     97% 0.02 in meteobridge W/m2
04:49 53.4 °F 52.5 °F 30.08 in Calm     97% 0.03 in meteobridge W/m2
04:54 53.4 °F 52.5 °F 30.08 in Calm     97% 0.03 in meteobridge W/m2
04:59 53.4 °F 52.5 °F 30.09 in Calm     97% 0.04 in meteobridge W/m2
05:04 53.2 °F 52.3 °F 30.09 in Calm   2.0 mph 97% 0.04 in meteobridge W/m2
05:09 53.2 °F 52.3 °F 30.09 in Calm     97% 0.05 in meteobridge W/m2
05:14 53.2 °F 52.7 °F 30.09 in Calm     98% 0.05 in meteobridge W/m2
05:19 53.2 °F 52.7 °F 30.09 in Calm     98% 0.06 in meteobridge W/m2
05:24 53.2 °F 52.7 °F 30.09 in Calm     98% 0.06 in meteobridge W/m2
05:29 53.2 °F 52.7 °F 30.10 in Calm     98% 0.06 in meteobridge W/m2
05:34 53.2 °F 52.7 °F 30.10 in Calm     98% 0.06 in meteobridge W/m2
05:39 53.2 °F 52.7 °F 30.10 in Calm     98% 0.06 in meteobridge W/m2
05:44 53.2 °F 52.7 °F 30.10 in Calm     98% 0.06 in meteobridge W/m2
05:49 53.1 °F 52.5 °F 30.10 in Calm     98% 0.05 in meteobridge W/m2
05:54 53.1 °F 52.5 °F 30.10 in Calm     98% 0.05 in meteobridge W/m2
05:59 53.1 °F 52.5 °F 30.10 in Calm     98% 0.04 in meteobridge W/m2
06:04 53.1 °F 52.5 °F 30.09 in Calm   1.0 mph 98% 0.03 in meteobridge W/m2
06:09 53.1 °F 52.5 °F 30.10 in Calm     98% 0.02 in meteobridge W/m2
06:14 53.1 °F 52.5 °F 30.10 in Calm     98% 0.02 in meteobridge W/m2
06:19 53.1 °F 52.5 °F 30.10 in Calm     98% 0.01 in meteobridge W/m2
06:24 53.1 °F 52.5 °F 30.11 in Calm     98% 0.01 in meteobridge W/m2
06:29 53.1 °F 52.5 °F 30.11 in Calm     98% 0.01 in meteobridge W/m2
06:34 52.9 °F 52.3 °F 30.10 in Calm     98% 0.00 in meteobridge W/m2
06:39 52.9 °F 52.3 °F 30.10 in Calm     98% 0.00 in meteobridge W/m2
06:44 52.9 °F 52.3 °F 30.11 in Calm     98% 0.00 in meteobridge W/m2
06:49 52.9 °F 52.3 °F 30.11 in Calm     98% 0.00 in meteobridge W/m2
06:54 52.7 °F 52.2 °F 30.11 in Calm     98% 0.00 in meteobridge W/m2
06:59 52.9 °F 52.3 °F 30.11 in Calm     98% 0.00 in meteobridge W/m2
07:04 52.9 °F 52.3 °F 30.11 in Calm     98% 0.00 in meteobridge W/m2
07:09 52.7 °F 52.2 °F 30.11 in Calm     98% 0.00 in meteobridge W/m2
07:14 52.7 °F 52.2 °F 30.11 in Calm     98% 0.00 in meteobridge W/m2
07:19 52.9 °F 52.5 °F 30.11 in Calm     99% 0.00 in meteobridge W/m2
07:24 52.7 °F 52.2 °F 30.12 in Calm     98% 0.00 in meteobridge W/m2
07:29 52.7 °F 52.2 °F 30.12 in Calm     98% 0.00 in meteobridge W/m2
07:34 52.5 °F 52.0 °F 30.11 in Calm     98% 0.00 in meteobridge W/m2
07:39 52.5 °F 52.0 °F 30.12 in Calm     98% 0.00 in meteobridge W/m2
07:44 52.5 °F 52.0 °F 30.12 in Calm     98% 0.00 in meteobridge W/m2
07:49 52.5 °F 52.0 °F 30.12 in Calm     98% 0.01 in meteobridge W/m2
07:54 52.5 °F 52.0 °F 30.12 in Calm     98% 0.01 in meteobridge W/m2
07:59 52.5 °F 52.0 °F 30.12 in Calm     98% 0.01 in meteobridge W/m2
08:04 52.5 °F 52.0 °F 30.13 in Calm     98% 0.01 in meteobridge W/m2
08:09 52.5 °F 52.0 °F 30.13 in Calm     98% 0.01 in meteobridge W/m2
08:14 52.5 °F 52.2 °F 30.12 in Calm     99% 0.01 in meteobridge W/m2
08:19 52.5 °F 52.2 °F 30.13 in Calm     99% 0.01 in meteobridge W/m2
08:24 52.5 °F 52.2 °F 30.13 in Calm     99% 0.01 in meteobridge W/m2
08:29 52.5 °F 52.2 °F 30.14 in Calm     99% 0.01 in meteobridge W/m2
08:34 52.5 °F 52.2 °F 30.14 in Calm     99% 0.01 in meteobridge W/m2
08:39 52.5 °F 52.2 °F 30.15 in Calm     99% 0.01 in meteobridge W/m2
08:44 52.7 °F 52.3 °F 30.14 in Calm     99% 0.01 in meteobridge W/m2
08:49 52.9 °F 52.5 °F 30.14 in Calm     99% 0.00 in meteobridge W/m2
08:54 52.9 °F 52.5 °F 30.14 in Calm     99% 0.00 in meteobridge W/m2
08:58 52.9 °F 52.5 °F 30.14 in Calm     99% 0.00 in meteobridge W/m2
09:04 52.9 °F 52.5 °F 30.15 in Calm     99% 0.00 in meteobridge W/m2
09:09 52.9 °F 52.5 °F 30.15 in Calm     99% 0.01 in meteobridge W/m2
09:14 53.1 °F 52.7 °F 30.14 in Calm     99% 0.01 in meteobridge W/m2
09:19 53.2 °F 52.9 °F 30.14 in Calm   1.0 mph 99% 0.01 in meteobridge W/m2
09:24 53.2 °F 52.9 °F 30.14 in Calm     99% 0.01 in meteobridge W/m2
09:29 53.2 °F 52.9 °F 30.14 in Calm     99% 0.02 in meteobridge W/m2
09:34 53.4 °F 53.1 °F 30.15 in Calm     99% 0.02 in meteobridge W/m2
09:39 53.8 °F 53.4 °F 30.15 in Calm     99% 0.02 in meteobridge W/m2
09:44 54.0 °F 53.6 °F 30.15 in Calm     99% 0.02 in meteobridge W/m2
09:49 54.0 °F 53.6 °F 30.15 in Calm     99% 0.02 in meteobridge W/m2
09:54 54.1 °F 53.8 °F 30.16 in Calm     99% 0.02 in meteobridge W/m2
09:59 54.3 °F 54.0 °F 30.16 in Calm   1.0 mph 99% 0.02 in meteobridge W/m2
10:04 54.3 °F 54.0 °F 30.16 in Calm     99% 0.02 in meteobridge W/m2
10:09 54.3 °F 54.0 °F 30.16 in Calm     99% 0.01 in meteobridge W/m2
10:14 54.3 °F 54.0 °F 30.16 in Calm     99% 0.01 in meteobridge W/m2
10:19 54.3 °F 54.0 °F 30.16 in Calm     99% 0.01 in meteobridge W/m2
10:24 54.3 °F 54.0 °F 30.16 in Calm     99% 0.01 in meteobridge W/m2
10:29 54.5 °F 54.1 °F 30.16 in Calm     99% 0.00 in meteobridge W/m2
10:34 54.3 °F 53.8 °F 30.16 in Calm     98% 0.00 in meteobridge W/m2
10:39 54.3 °F 53.8 °F 30.16 in Calm     98% 0.00 in meteobridge W/m2
10:44 54.3 °F 53.8 °F 30.15 in Calm     98% 0.00 in meteobridge W/m2
10:49 54.5 °F 54.0 °F 30.16 in Calm     98% 0.00 in meteobridge W/m2
10:54 54.9 °F 54.5 °F 30.16 in Calm     99% 0.00 in meteobridge W/m2
10:59 54.9 °F 54.5 °F 30.16 in Calm     99% 0.00 in meteobridge W/m2
11:04 54.9 °F 54.3 °F 30.16 in Calm     98% 0.00 in meteobridge W/m2
11:09 55.0 °F 54.5 °F 30.16 in Calm     98% 0.00 in meteobridge W/m2
11:14 55.0 °F 54.1 °F 30.16 in Calm     97% 0.00 in meteobridge W/m2
11:19 55.2 °F 54.3 °F 30.16 in Calm     97% 0.00 in meteobridge W/m2
11:24 55.4 °F 54.5 °F 30.16 in Calm     97% 0.00 in meteobridge W/m2
11:29 55.6 °F 54.5 °F 30.16 in Calm     96% 0.00 in meteobridge W/m2
11:34 55.8 °F 54.7 °F 30.17 in Calm   3.0 mph 96% 0.00 in meteobridge W/m2
11:39 55.6 °F 54.1 °F 30.17 in Calm     95% 0.00 in meteobridge W/m2
11:44 55.6 °F 54.1 °F 30.16 in Calm     95% 0.00 in meteobridge W/m2
11:49 55.6 °F 54.1 °F 30.18 in Calm     95% 0.00 in meteobridge W/m2
11:54 55.8 °F 54.7 °F 30.18 in Calm     96% 0.00 in meteobridge W/m2
11:59 55.8 °F 54.7 °F 30.18 in Calm     96% 0.00 in meteobridge W/m2
12:04 55.9 °F 54.5 °F 30.18 in Calm     95% 0.00 in meteobridge W/m2
12:09 56.1 °F 54.7 °F 30.18 in Calm     95% 0.00 in meteobridge W/m2
12:14 56.3 °F 54.0 °F 30.18 in Calm     92% 0.00 in meteobridge W/m2
12:19 56.3 °F 54.3 °F 30.18 in Calm     93% 0.00 in meteobridge W/m2
12:24 56.5 °F 54.9 °F 30.18 in Calm     94% 0.00 in meteobridge W/m2
12:29 56.7 °F 54.7 °F 30.18 in Calm   2.0 mph 93% 0.00 in meteobridge W/m2
12:34 56.8 °F 54.0 °F 30.18 in Calm     90% 0.00 in meteobridge W/m2
12:39 57.0 °F 54.5 °F 30.18 in Calm     91% 0.00 in meteobridge W/m2
12:44 57.2 °F 54.7 °F 30.18 in Calm     91% 0.00 in meteobridge W/m2
12:49 57.4 °F 54.9 °F 30.18 in Calm   1.0 mph 91% 0.00 in meteobridge W/m2
12:54 57.4 °F 53.8 °F 30.18 in Calm   1.0 mph 88% 0.00 in meteobridge W/m2
12:59 57.4 °F 53.6 °F 30.19 in Calm     87% 0.00 in meteobridge W/m2
13:04 57.4 °F 53.8 °F 30.18 in Calm   1.0 mph 88% 0.00 in meteobridge W/m2
13:09 57.6 °F 54.0 °F 30.19 in Calm   1.0 mph 88% 0.00 in meteobridge W/m2
13:14 57.7 °F 54.0 °F 30.19 in Calm     87% 0.00 in meteobridge W/m2
13:19 57.9 °F 54.3 °F 30.19 in Calm     88% 0.00 in meteobridge W/m2
13:24 58.3 °F 55.0 °F 30.19 in Calm   1.0 mph 89% 0.00 in meteobridge W/m2
13:29 58.6 °F 54.9 °F 30.19 in Calm   1.0 mph 87% 0.00 in meteobridge W/m2
13:34 58.8 °F 54.3 °F 30.19 in Calm     85% 0.00 in meteobridge W/m2
13:39 59.2 °F 54.7 °F 30.18 in NW 2.9 mph 4.0 mph 85% 0.00 in meteobridge W/m2
13:44 59.5 °F 54.7 °F 30.18 in Calm     84% 0.00 in meteobridge W/m2
13:49 59.7 °F 54.9 °F 30.19 in NNW 0.9 mph 1.0 mph 84% 0.00 in meteobridge W/m2
13:54 59.9 °F 54.3 °F 30.18 in Calm     82% 0.00 in meteobridge W/m2
13:59 60.4 °F 54.5 °F 30.19 in Calm     81% 0.00 in meteobridge W/m2
14:04 61.0 °F 54.7 °F 30.18 in Calm   2.0 mph 80% 0.00 in meteobridge W/m2
14:09 61.3 °F 53.8 °F 30.18 in Calm   1.0 mph 76% 0.00 in meteobridge W/m2
14:14 61.9 °F 53.8 °F 30.18 in NNW 0.9 mph 3.0 mph 75% 0.00 in meteobridge W/m2
14:19 62.2 °F 55.6 °F 30.18 in Calm     79% 0.00 in meteobridge W/m2
14:24 62.2 °F 54.5 °F 30.18 in Calm     76% 0.00 in meteobridge W/m2
14:29 62.2 °F 54.5 °F 30.18 in Calm     76% 0.00 in meteobridge W/m2
14:34 62.2 °F 53.8 °F 30.17 in Calm   1.0 mph 74% 0.00 in meteobridge W/m2
14:39 62.4 °F 52.9 °F 30.17 in Calm   2.0 mph 71% 0.00 in meteobridge W/m2
14:44 62.4 °F 52.9 °F 30.16 in Calm     71% 0.00 in meteobridge W/m2
14:49 62.4 °F 53.2 °F 30.16 in Calm     72% 0.00 in meteobridge W/m2
14:54 62.8 °F 52.5 °F 30.16 in Calm   1.0 mph 69% 0.00 in meteobridge W/m2
14:59 63.1 °F 53.2 °F 30.16 in Calm   2.0 mph 70% 0.00 in meteobridge W/m2
15:04 63.5 °F 53.1 °F 30.16 in Calm   2.0 mph 69% 0.00 in meteobridge W/m2
15:09 64.0 °F 53.2 °F 30.15 in Calm   1.0 mph 68% 0.00 in meteobridge W/m2
15:14 64.0 °F 52.9 °F 30.15 in Calm     67% 0.00 in meteobridge W/m2
15:19 64.4 °F 54.0 °F 30.15 in Calm   4.0 mph 69% 0.00 in meteobridge W/m2
15:24 64.8 °F 51.8 °F 30.14 in Calm   1.0 mph 63% 0.00 in meteobridge W/m2
15:29 64.9 °F 50.7 °F 30.14 in Calm     60% 0.00 in meteobridge W/m2
15:34 65.1 °F 50.4 °F 30.14 in Calm     59% 0.00 in meteobridge W/m2
15:39 65.5 °F 51.6 °F 30.14 in ENE 0.9 mph 1.0 mph 61% 0.00 in meteobridge W/m2
15:44 65.5 °F 50.7 °F 30.15 in Calm   3.0 mph 59% 0.00 in meteobridge W/m2
15:49 65.5 °F 51.6 °F 30.15 in Calm   4.0 mph 61% 0.00 in meteobridge W/m2
15:54 65.7 °F 50.5 °F 30.15 in Calm   5.0 mph 58% 0.00 in meteobridge W/m2
15:59 65.7 °F 51.8 °F 30.14 in WNW 2.0 mph 2.0 mph 61% 0.00 in meteobridge W/m2
16:04 65.8 °F 48.7 °F 30.14 in Calm   1.0 mph 54% 0.00 in meteobridge W/m2
16:09 65.8 °F 48.7 °F 30.14 in Calm     54% 0.00 in meteobridge W/m2
16:14 66.0 °F 50.4 °F 30.15 in NNE 0.9 mph 2.0 mph 57% 0.00 in meteobridge W/m2
16:19 66.0 °F 49.5 °F 30.15 in NNE 0.9 mph 1.0 mph 55% 0.00 in meteobridge W/m2
16:24 65.8 °F 51.6 °F 30.15 in Calm     60% 0.00 in meteobridge W/m2
16:29 65.7 °F 49.5 °F 30.15 in Calm     56% 0.00 in meteobridge W/m2
16:34 65.5 °F 49.3 °F 30.15 in NNW 0.9 mph 1.0 mph 56% 0.00 in meteobridge W/m2
16:39 65.1 °F 47.1 °F 30.15 in NW 2.0 mph 3.0 mph 52% 0.00 in meteobridge W/m2
16:44 65.1 °F 49.5 °F 30.15 in Calm   3.0 mph 57% 0.00 in meteobridge W/m2
16:49 64.9 °F 50.7 °F 30.16 in Calm   1.0 mph 60% 0.00 in meteobridge W/m2
16:54 64.9 °F 47.8 °F 30.15 in NW 0.9 mph 1.0 mph 54% 0.00 in meteobridge W/m2
16:59 65.1 °F 49.5 °F 30.16 in Calm     57% 0.00 in meteobridge W/m2
17:04 65.1 °F 51.3 °F 30.16 in Calm     61% 0.00 in meteobridge W/m2
17:09 65.1 °F 51.3 °F 30.15 in Calm   5.0 mph 61% 0.00 in meteobridge W/m2
17:14 65.1 °F 50.9 °F 30.15 in Calm   1.0 mph 60% 0.00 in meteobridge W/m2
17:19 65.1 °F 51.8 °F 30.15 in Calm     62% 0.00 in meteobridge W/m2
17:24 65.1 °F 51.3 °F 30.16 in Calm     61% 0.00 in meteobridge W/m2
17:29 65.1 °F 54.0 °F 30.15 in Calm     67% 0.00 in meteobridge W/m2
17:34 65.3 °F 51.4 °F 30.16 in Calm     61% 0.00 in meteobridge W/m2
17:39 65.5 °F 51.3 °F 30.16 in Calm   4.0 mph 60% 0.00 in meteobridge W/m2
17:44 65.7 °F 51.8 °F 30.16 in Calm   1.0 mph 61% 0.00 in meteobridge W/m2
17:49 65.7 °F 52.7 °F 30.16 in Calm     63% 0.00 in meteobridge W/m2
17:54 65.5 °F 51.6 °F 30.16 in Calm   2.0 mph 61% 0.00 in meteobridge W/m2
17:59 65.1 °F 52.2 °F 30.16 in Calm   1.0 mph 63% 0.00 in meteobridge W/m2
18:04 64.9 °F 53.8 °F 30.16 in Calm     67% 0.00 in meteobridge W/m2
18:09 64.8 °F 53.6 °F 30.16 in Calm   1.0 mph 67% 0.00 in meteobridge W/m2
18:14 64.6 °F 55.0 °F 30.16 in Calm     71% 0.00 in meteobridge W/m2
18:19 64.2 °F 54.3 °F 30.16 in Calm     70% 0.00 in meteobridge W/m2
18:24 64.0 °F 54.5 °F 30.16 in Calm     71% 0.00 in meteobridge W/m2
18:29 63.9 °F 54.7 °F 30.17 in Calm     72% 0.00 in meteobridge W/m2
18:34 63.3 °F 54.1 °F 30.17 in Calm   1.0 mph 72% 0.00 in meteobridge W/m2
18:39 63.1 °F 52.9 °F 30.17 in Calm   2.0 mph 69% 0.00 in meteobridge W/m2
18:44 63.0 °F 54.1 °F 30.18 in Calm     73% 0.00 in meteobridge W/m2
18:49 62.6 °F 53.4 °F 30.18 in Calm   1.0 mph 72% 0.00 in meteobridge W/m2
18:54 62.4 °F 53.6 °F 30.18 in Calm     73% 0.00 in meteobridge W/m2
18:59 62.2 °F 53.4 °F 30.18 in Calm     73% 0.00 in meteobridge W/m2
19:04 62.1 °F 53.6 °F 30.18 in Calm     74% 0.00 in meteobridge W/m2
19:09 61.9 °F 53.1 °F 30.17 in Calm     73% 0.00 in meteobridge W/m2
19:14 61.5 °F 53.6 °F 30.18 in Calm     75% 0.00 in meteobridge W/m2
19:19 61.3 °F 53.4 °F 30.18 in Calm     75% 0.00 in meteobridge W/m2
19:24 61.0 °F 53.4 °F 30.18 in Calm     76% 0.00 in meteobridge W/m2
19:29 60.6 °F 53.8 °F 30.18 in Calm     78% 0.00 in meteobridge W/m2
19:34 60.3 °F 53.8 °F 30.19 in Calm     79% 0.00 in meteobridge W/m2
19:39 60.1 °F 54.0 °F 30.19 in Calm     80% 0.00 in meteobridge W/m2
19:44 59.5 °F 53.8 °F 30.18 in Calm     81% 0.00 in meteobridge W/m2
19:49 59.4 °F 53.6 °F 30.18 in Calm     81% 0.00 in meteobridge W/m2
19:54 58.8 °F 53.4 °F 30.19 in Calm     82% 0.00 in meteobridge W/m2
19:59 58.5 °F 53.2 °F 30.19 in Calm     83% 0.00 in meteobridge W/m2
20:04 57.9 °F 53.1 °F 30.19 in Calm     84% 0.00 in meteobridge W/m2
20:09 57.6 °F 53.1 °F 30.19 in Calm     85% 0.00 in meteobridge W/m2
20:14 57.4 °F 53.2 °F 30.19 in Calm     86% 0.00 in meteobridge W/m2
20:19 56.8 °F 53.1 °F 30.19 in Calm     87% 0.00 in meteobridge W/m2
20:24 56.7 °F 52.9 °F 30.19 in Calm     87% 0.00 in meteobridge W/m2
20:29 56.3 °F 52.9 °F 30.19 in Calm     88% 0.00 in meteobridge W/m2
20:34 55.9 °F 52.5 °F 30.20 in Calm     88% 0.00 in meteobridge W/m2
20:39 55.6 °F 52.3 °F 30.20 in Calm     89% 0.00 in meteobridge W/m2
20:44 55.2 °F 52.3 °F 30.20 in Calm     90% 0.00 in meteobridge W/m2
20:49 54.9 °F 52.0 °F 30.20 in Calm     90% 0.00 in meteobridge W/m2
20:54 54.5 °F 52.0 °F 30.21 in Calm     91% 0.00 in meteobridge W/m2
20:59 54.1 °F 51.6 °F 30.21 in Calm     91% 0.00 in meteobridge W/m2
21:04 54.0 °F 51.4 °F 30.21 in Calm     91% 0.00 in meteobridge W/m2
21:09 53.8 °F 51.4 °F 30.21 in Calm     92% 0.00 in meteobridge W/m2
21:14 53.4 °F 51.1 °F 30.21 in Calm     92% 0.00 in meteobridge W/m2
21:19 53.2 °F 51.3 °F 30.22 in Calm     93% 0.00 in meteobridge W/m2
21:24 53.1 °F 51.1 °F 30.22 in Calm     93% 0.00 in meteobridge W/m2
21:29 52.9 °F 50.9 °F 30.22 in Calm     93% 0.00 in meteobridge W/m2
21:34 52.5 °F 50.5 °F 30.22 in Calm     93% 0.00 in meteobridge W/m2
21:39 52.3 °F 50.4 °F 30.22 in Calm     93% 0.00 in meteobridge W/m2
21:44 52.2 °F 50.5 °F 30.22 in Calm     94% 0.00 in meteobridge W/m2
21:49 52.0 °F 50.4 °F 30.22 in Calm     94% 0.00 in meteobridge W/m2
21:54 51.6 °F 50.0 °F 30.22 in Calm     94% 0.00 in meteobridge W/m2
21:59 51.6 °F 50.0 °F 30.22 in Calm     94% 0.00 in meteobridge W/m2
22:04 51.4 °F 49.8 °F 30.22 in Calm     94% 0.00 in meteobridge W/m2
22:09 51.3 °F 49.8 °F 30.22 in Calm     95% 0.00 in meteobridge W/m2
22:14 51.1 °F 49.6 °F 30.23 in Calm     95% 0.00 in meteobridge W/m2
22:19 51.1 °F 49.6 °F 30.23 in Calm     95% 0.00 in meteobridge W/m2
22:24 50.7 °F 49.3 °F 30.23 in Calm     95% 0.00 in meteobridge W/m2
22:29 50.7 °F 49.3 °F 30.23 in Calm     95% 0.00 in meteobridge W/m2
22:34 50.5 °F 49.5 °F 30.23 in Calm     96% 0.00 in meteobridge W/m2
22:39 50.4 °F 48.9 °F 30.23 in Calm     95% 0.00 in meteobridge W/m2
22:44 50.2 °F 49.1 °F 30.23 in Calm     96% 0.00 in meteobridge W/m2
22:49 50.0 °F 48.9 °F 30.23 in Calm     96% 0.00 in meteobridge W/m2
22:54 49.8 °F 48.4 °F 30.23 in Calm     95% 0.00 in meteobridge W/m2
22:59 49.8 °F 48.4 °F 30.22 in Calm     95% 0.00 in meteobridge W/m2
23:04 49.6 °F 48.6 °F 30.22 in Calm     96% 0.00 in meteobridge W/m2
23:09 49.5 °F 48.4 °F 30.22 in Calm     96% 0.00 in meteobridge W/m2
23:14 49.5 °F 48.4 °F 30.22 in Calm     96% 0.00 in meteobridge W/m2
23:19 49.5 °F 48.4 °F 30.22 in Calm     96% 0.00 in meteobridge W/m2
23:24 49.3 °F 48.2 °F 30.22 in Calm     96% 0.00 in meteobridge W/m2
23:29 49.1 °F 48.0 °F 30.22 in Calm     96% 0.00 in meteobridge W/m2
23:34 48.9 °F 47.8 °F 30.22 in Calm     96% 0.00 in meteobridge W/m2
23:39 48.9 °F 48.0 °F 30.22 in Calm     97% 0.00 in meteobridge W/m2
23:44 48.9 °F 47.8 °F 30.22 in Calm     96% 0.00 in meteobridge W/m2
23:49 48.9 °F 48.0 °F 30.22 in Calm     97% 0.00 in meteobridge W/m2
23:54 48.9 °F 48.0 °F 30.22 in Calm     97% 0.00 in meteobridge W/m2
23:59 48.9 °F 48.0 °F 30.22 in Calm     97% 0.00 in meteobridge W/m2
EllijayWeather
Compliments of Weather Underground - 2.5 mb